Showing default

IRIDIUM 126, 42809

Orbit data source: Space-Track

IRIDIUM 126, 42809 is a payload satellite owned by Iridium (US) in LEO that was launched on Sun, 25 Jun 2017 UTC via an FALCON 9 launch vehicle from the Air Force Western Test Range (AFWTR). Payload-class satellites include a variety of spacecraft equipped with specific instruments for various scientific and technological missions. These include communications satellites like Starlink; space stations such as the ISS; scientific satellites like the Hubble; Earth observation satellites from companies like Planet Labs, Umbra, and HawkEye 360; GPS; miniature CubeSats for education and research; and military/defense satellites.

Loading next visibility...
Identifier
42809, 2017-039G
Orbit
LEO
Country
Flag of USUS
Related business
Manufacturer
OATK SSG Gilbert
Mission
Operational Commercial Communications
Bus & Motor
ELITEBUS, Unknown motor
Mass
860 kg wet, 700 kg dry
Launch date (UTC)
2017-06-25 (8 years ago)
Launch vehicle
FALCON 9
Launch site
Air Force Western Test Range (AFWTR)
Object type
Payload
Rocket body
Debris
Shape & HBR
Trap Box + 2 Pan, 4.8 m
Radar Cross Section
10.154 m², Large (>1 m²)

Expand to show TLE details & history
Last TLE update: 23 hours ago

TLE from 23 hours ago
0 IRIDIUM 126
1 42809U 17039G   25304.79628304  .00000566  00000-0  19520-3 0  9993
2 42809  86.3924  89.1207 0002253  92.1194 268.0260 14.34216631437214
Epoch: 2025-10-31T19:06Z
TLE epoch observation values (Epoch: 2025-10-31T19:06:38.854Z)
Latitude
-0.00002°
Longitude
122.12323°
Altitude
780.778 km
Speed
7.463 km/s
True Right ascension
05h 56m 28s
True Declination
0° 00' 00"
Sunlit
Object was in full shadow at epoch
Visualization orbit readout
Latitude
Unknown
Longitude
Unknown
Altitude
Unknown
Speed
Unknown
Apparent Right ascension
Unknown
Apparent Declination
Unknown
Sunlit
N/A
Visualization observer readout
Local Sidereal Time
13:29:47
Azimuth
Unknown
Elevation
Unknown
Doppler factor
Unknown
Orbital elements
Apogee altitude
776.247 km
Perigee altitude
773.024 km
Semi-major axis
7,152.772 km
Eccentricity
0.00023
Inclination
86.3924°
RAAN
89.1207°
Arg. of periapsis
92.1194°
True anomaly
268.0002°
Mean anomaly
268.026°
Eccentric anomaly
268.0131°
Mean motion
3.58783 °/min
Orbital period
100.34 mins
BSTAR
0.0001952
Loading maneuver chart data...
Computing Atmospheric mass density...
Loading historical data...
Loading historical data...
Loading historical data...
Loading historical data...
Loading historical data...
Loading historical data...
Loading historical data...

Documentation

Showing up to 5 results
|